Hourly Weather Al-Ladikija

Today, 8 March, Monday

Time Temperature Precipitation Wind Pressure Humidity
00:00 +13°C° 0.2 mm 5 mps 759 mmHg 88%
01:00 +13°C° 0.2 mm 5 mps 758 mmHg 90%
02:00 +13°C° 0 mm 4 mps 758 mmHg 93%
03:00 +13°C° 0.2 mm 5 mps 758 mmHg 93%
04:00 +13°C° 0.2 mm 5 mps 758 mmHg 93%
05:00 +13°C° 0.2 mm 5 mps 758 mmHg 92%
06:00 +13°C° 0.4 mm 6 mps 758 mmHg 90%
07:00 +14°C° 0.4 mm 6 mps 758 mmHg 87%
08:00 +15°C° 0 mm 6 mps 758 mmHg 85%
09:00 +15°C° 0.4 mm 7 mps 758 mmHg 82%
10:00 +16°C° 0.4 mm 7 mps 758 mmHg 79%
11:00 +16°C° 0.4 mm 7 mps 758 mmHg 77%
12:00 +16°C° 0.5 mm 7 mps 757 mmHg 77%
13:00 +16°C° 0.5 mm 7 mps 757 mmHg 77%
14:00 +16°C° 0 mm 6 mps 757 mmHg 77%
15:00 +16°C° 0.2 mm 6 mps 757 mmHg 80%
16:00 +15°C° 0.2 mm 6 mps 757 mmHg 83%
17:00 +15°C° 0.2 mm 7 mps 758 mmHg 86%
18:00 +14°C° 0.1 mm 6 mps 758 mmHg 87%
19:00 +14°C° 0.1 mm 6 mps 758 mmHg 89%
20:00 +13°C° 0.1 mm 6 mps 759 mmHg 90%
21:00 +13°C° 0.1 mm 6 mps 759 mmHg 89%
22:00 +13°C° 0.1 mm 6 mps 759 mmHg 88%
23:00 +13°C° 0.1 mm 6 mps 759 mmHg 87%

Tomorrow, 9 March, Tuesday

Time Temperature Precipitation Wind Pressure Humidity
00:00 +13°C° 0 mm 6 mps 759 mmHg 87%
01:00 +13°C° 0 mm 5 mps 759 mmHg 88%
02:00 +12°C° 0 mm 5 mps 759 mmHg 89%
03:00 +12°C° 0 mm 5 mps 759 mmHg 88%
04:00 +12°C° 0 mm 4 mps 759 mmHg 87%
05:00 +12°C° 0 mm 4 mps 759 mmHg 86%
06:00 +13°C° 0 mm 5 mps 759 mmHg 84%
07:00 +14°C° 0 mm 5 mps 760 mmHg 83%
08:00 +15°C° 0 mm 6 mps 760 mmHg 81%
09:00 +15°C° 0 mm 5 mps 760 mmHg 75%
10:00 +17°C° 0 mm 4 mps 760 mmHg 69%
11:00 +18°C° 0 mm 4 mps 760 mmHg 63%
12:00 +18°C° 0 mm 4 mps 760 mmHg 63%
13:00 +18°C° 0 mm 3 mps 760 mmHg 64%
14:00 +18°C° 0 mm 3 mps 759 mmHg 65%
15:00 +17°C° 0 mm 3 mps 759 mmHg 70%
16:00 +17°C° 0 mm 2 mps 760 mmHg 74%
17:00 +16°C° 0 mm 2 mps 760 mmHg 79%
18:00 +15°C° 0 mm 2 mps 760 mmHg 78%
19:00 +15°C° 0 mm 2 mps 760 mmHg 76%
20:00 +15°C° 0 mm 2 mps 760 mmHg 74%
21:00 +14°C° 0 mm 2 mps 760 mmHg 72%
22:00 +14°C° 0 mm 1 mps 760 mmHg 70%
23:00 +13°C° 0 mm 1 mps 760 mmHg 68%

Day after tomorrow, 10 March, Wednesday

Time Temperature Precipitation Wind Pressure Humidity
00:00 +13°C° 0 mm 2 mps 760 mmHg 67%
01:00 +12°C° 0 mm 3 mps 760 mmHg 67%
02:00 +12°C° 0 mm 4 mps 760 mmHg 66%
03:00 +12°C° 0 mm 4 mps 760 mmHg 69%
04:00 +12°C° 0 mm 4 mps 759 mmHg 71%
05:00 +11°C° 0 mm 4 mps 759 mmHg 74%
06:00 +12°C° 0 mm 5 mps 759 mmHg 73%
07:00 +13°C° 0 mm 5 mps 760 mmHg 72%
08:00 +14°C° 0 mm 5 mps 760 mmHg 71%
09:00 +16°C° 0 mm 5 mps 759 mmHg 68%
10:00 +17°C° 0 mm 5 mps 759 mmHg 64%
11:00 +20°C° 0 mm 5 mps 758 mmHg 61%
12:00 +21°C° 0 mm 5 mps 758 mmHg 59%
13:00 +22°C° 0 mm 5 mps 757 mmHg 58%
14:00 +22°C° 0 mm 5 mps 756 mmHg 56%
15:00 +21°C° 0 mm 5 mps 756 mmHg 58%
16:00 +21°C° 0 mm 5 mps 755 mmHg 60%
17:00 +20°C° 0 mm 5 mps 755 mmHg 63%
18:00 +19°C° 0 mm 5 mps 755 mmHg 62%
19:00 +17°C° 0 mm 5 mps 755 mmHg 62%
20:00 +16°C° 0 mm 5 mps 755 mmHg 62%
21:00 +17°C° 0 mm 4 mps 754 mmHg 64%
22:00 +15°C° 0 mm 4 mps 754 mmHg 65%
23:00 +15°C° 0 mm 4 mps 754 mmHg 66%

11 March, Thursday

Time Temperature Precipitation Wind Pressure Humidity
00:00 +14°C° 0 mm 4 mps 754 mmHg 67%
01:00 +14°C° 0 mm 3 mps 754 mmHg 68%
02:00 +14°C° 0 mm 3 mps 753 mmHg 69%
03:00 +13°C° 0 mm 3 mps 753 mmHg 70%
04:00 +13°C° 0 mm 4 mps 754 mmHg 71%
05:00 +13°C° 0 mm 4 mps 754 mmHg 73%
06:00 +14°C° 0 mm 4 mps 754 mmHg 72%
07:00 +15°C° 0 mm 4 mps 754 mmHg 72%
08:00 +17°C° 0 mm 4 mps 754 mmHg 72%
09:00 +17°C° 0 mm 5 mps 754 mmHg 74%
10:00 +19°C° 0 mm 6 mps 754 mmHg 75%
11:00 +20°C° 0 mm 7 mps 754 mmHg 77%
12:00 +20°C° 0.1 mm 7 mps 754 mmHg 77%
13:00 +20°C° 0.1 mm 7 mps 754 mmHg 76%
14:00 +19°C° 0.1 mm 6 mps 753 mmHg 76%
15:00 +19°C° 0.1 mm 6 mps 753 mmHg 79%
16:00 +17°C° 0.1 mm 6 mps 753 mmHg 82%
17:00 +16°C° 0.1 mm 6 mps 753 mmHg 85%
18:00 +16°C° 0.4 mm 7 mps 753 mmHg 87%
19:00 +15°C° 0.4 mm 7 mps 753 mmHg 89%
20:00 +15°C° 0.4 mm 7 mps 753 mmHg 92%
21:00 +15°C° 0.4 mm 8 mps 753 mmHg 91%
22:00 +14°C° 0.4 mm 10 mps 752 mmHg 90%
23:00 +14°C° 0.4 mm 11 mps 752 mmHg 88%

12 March, Friday

Time Temperature Precipitation Wind Pressure Humidity
00:00 +13°C° 0.7 mm 11 mps 751 mmHg 88%
01:00 +13°C° 0.7 mm 11 mps 751 mmHg 88%
02:00 +13°C° 0.7 mm 11 mps 750 mmHg 88%
03:00 +13°C° 0.8 mm 12 mps 750 mmHg 88%
04:00 +13°C° 0.8 mm 12 mps 750 mmHg 87%
05:00 +13°C° 0.8 mm 13 mps 750 mmHg 86%
06:00 +13°C° 0.2 mm 11 mps 751 mmHg 81%
07:00 +13°C° 0.2 mm 8 mps 752 mmHg 76%
08:00 +15°C° 0.2 mm 6 mps 753 mmHg 72%
09:00 +15°C° 0 mm 6 mps 754 mmHg 66%
10:00 +16°C° 0 mm 7 mps 755 mmHg 61%
11:00 +17°C° 0 mm 7 mps 756 mmHg 55%
12:00 +17°C° 0 mm 7 mps 756 mmHg 52%
13:00 +17°C° 0 mm 7 mps 756 mmHg 49%
14:00 +18°C° 0 mm 7 mps 757 mmHg 46%
15:00 +16°C° 0 mm 6 mps 758 mmHg 50%
16:00 +15°C° 0 mm 5 mps 758 mmHg 54%
17:00 +14°C° 0 mm 4 mps 759 mmHg 58%
18:00 +13°C° 0 mm 4 mps 759 mmHg 56%
19:00 +12°C° 0 mm 4 mps 760 mmHg 55%
20:00 +11°C° 0 mm 4 mps 761 mmHg 53%
21:00 +10°C° 0 mm 3 mps 761 mmHg 52%
22:00 +10°C° 0 mm 3 mps 761 mmHg 50%
23:00 +10°C° 0 mm 3 mps 761 mmHg 49%

13 March, Saturday

Time Temperature Precipitation Wind Pressure Humidity
00:00 +9°C° 0 mm 3 mps 761 mmHg 48%
01:00 +9°C° 0 mm 3 mps 761 mmHg 47%
02:00 +8°C° 0 mm 3 mps 761 mmHg 46%
03:00 +8°C° 0 mm 3 mps 762 mmHg 47%
04:00 +7°C° 0 mm 3 mps 762 mmHg 47%
05:00 +7°C° 0 mm 3 mps 762 mmHg 47%
06:00 +8°C° 0 mm 3 mps 763 mmHg 48%
07:00 +9°C° 0 mm 3 mps 763 mmHg 49%
08:00 +11°C° 0 mm 3 mps 763 mmHg 50%
09:00 +13°C° 0 mm 2 mps 763 mmHg 47%
10:00 +14°C° 0 mm 2 mps 763 mmHg 44%
11:00 +16°C° 0 mm 1 mps 764 mmHg 42%
12:00 +17°C° 0 mm 2 mps 763 mmHg 41%
13:00 +17°C° 0 mm 2 mps 763 mmHg 41%
14:00 +18°C° 0 mm 2 mps 762 mmHg 41%
15:00 +17°C° 0 mm 2 mps 762 mmHg 48%
16:00 +16°C° 0 mm 3 mps 762 mmHg 55%
17:00 +16°C° 0 mm 3 mps 762 mmHg 62%
18:00 +13°C° 0 mm 3 mps 762 mmHg 58%
19:00 +12°C° 0 mm 3 mps 762 mmHg 54%
20:00 +11°C° 0 mm 4 mps 762 mmHg 50%
21:00 +11°C° 0 mm 4 mps 762 mmHg 47%
22:00 +10°C° 0 mm 4 mps 762 mmHg 43%
23:00 +10°C° 0 mm 4 mps 762 mmHg 39%
Show more